Regional Weather Roundup
Issued by NWS

Home | Current Version | Previous Version | Graphics & Text | Print | Product List | Glossary On
Versions: 1 2 3 4 5 6 7 8 9 10 11 12 13 14 15 16 17 18 19 20 21 22 23 24 25 26 27 28 29 30 31 32 33 34 35 36 37 38 39 40 41 42 43 44 45 46 47 48 49 50
613
ASUS43 KDTX 241701
RWRMI
MICHIGAN HOURLY REGIONAL WEATHER ROUNDUP
NATIONAL WEATHER SERVICE DETROIT/PONTIAC MI
1200 PM EST TUE JAN 24 2017

NOTE: "FAIR" INDICATES FEW OR NO CLOUDS BELOW 12,000 FEET WITH NO
SIGNIFICANT WEATHER AND/OR OBSTRUCTION TO VISIBILITY.

MIZ047>049-052>055-059>063-066>070-074>076-081>083-241800-
SOUTHEAST LOWER MICHIGAN

CITY           SKY/WX    TMP DP  RH WIND       PRES   REMARKS
ADRIAN         CLOUDY    40  38  93 NW13G20   29.80F WCI  32
ALMA           CLOUDY    37  37  97 W13G21    29.81S WCI  29
ANN ARBOR      CLOUDY    39  38  96 W12       29.78S FOG     WCI  32
BAD AXE        LGT RAIN  37  37 100 N7        29.75F WCI  31
CARO           LGT RAIN  38  37  95 NW6       29.77R WCI  33
DETROIT CITY   CLOUDY    39  38  96 NW7       29.77S FOG     WCI  34
DETROIT        LGT RAIN  41  38  89 W9        29.79S
FLINT          CLOUDY    38  36  92 NW13      29.79R FOG     WCI  30
GROSSE ILE     CLOUDY    40  37  92 NW8       29.77S FOG     WCI  34
HILLSDALE      CLOUDY    37  36  93 NW13      29.79F WCI  29
HOWELL         CLOUDY    37  37  97 NW9       29.79S FOG     WCI  31

CITY           SKY/WX    TMP DP  RH WIND       PRES   REMARKS
JACKSON        CLOUDY    39  36  89 W9        29.79F WCI  33
LAMBERTVILLE   CLOUDY    42  39  89 NW6       29.78F
LANSING        CLOUDY    37  34  89 W12       29.81F WCI  29
LAPEER         CLOUDY    37  37 100 NW7       29.77S FOG     WCI  32
MASON          CLOUDY    38  37  97 NW9G16    29.79F WCI  31
MONROE         CLOUDY    40  40  99 NW8G16    29.78F FOG
PONTIAC        CLOUDY    37  35  92 NW12      29.75S WCI  29
PORT HOPE        N/A     36  35  96 NW7       29.74F WCI  30
PORT HURON     RAIN      36  36 100 CALM      29.76S
TRI CITIES     CLOUDY    38  38 100 W9        29.79S WCI  31
MIDLAND        CLOUDY    39  37  92 NW9       29.78F WCI  33
TROY           LGT RAIN  39  37  91 W8        29.79S WCI  33
SAGINAW HB     CLOUDY    37  36  93 W6        29.78S WCI  33
$$
MIZ043>046-050>051-056>058-064>065-071>073-077>080-241800-
SOUTHWEST LOWER MICHIGAN

CITY           SKY/WX    TMP DP  RH WIND       PRES   REMARKS
BATTLE CREEK   CLOUDY    39  35  86 NW13      29.83F WCI  31
BENTON HARBOR  CLOUDY    38  35  89 W12       29.87S WCI  30
BIG RAPIDS     CLOUDY    37  34  89 NW3       29.80F
COLDWATER      CLOUDY    38  37  94 NW7       29.81F WCI  33
FREMONT        CLOUDY    39  35  84 NW6       29.83F WCI  35
HOLLAND        CLOUDY    39  36  89 NW8       29.85F WCI  33
GRAND RAPIDS   CLOUDY    38  34  85 NW10      29.83F WCI  31
IONIA          CLOUDY    37  35  92 NW13      29.81F WCI  28
KALAMAZOO      DRIZZLE   39  34  82 NW14      29.84F WCI  31
LUDINGTON      CLOUDY    37  36  95 NW7       29.83F WCI  32
MARSHALL       CLOUDY    39  36  91 W12       29.81F WCI  31
MOUNT PLEASANT CLOUDY    37  37  99 W9        29.79S WCI  31
MUSKEGON       CLOUDY    40  37  89 NW7       29.85F
SOUTH HAVEN    CLOUDY    38  37  93 NW8       29.86S FOG     WCI  32
$$
MIZ016>042-241800-
NORTHERN LOWER MICHIGAN

CITY           SKY/WX    TMP DP  RH WIND       PRES   REMARKS
ALPENA         LGT RAIN  36  35  96 N3        29.78S FOG
BEAVER ISLAND  FOG       34  34 100 N5        29.80F VSB 1/4 WCI  29
CADILLAC       CLOUDY    36  34  92 W7        29.78S WCI  30
CHARLEVOIX     FOG       35  35 100 NW6       29.82F VSB 1/2 WCI  30
FRANKFORT      CLOUDY    38  36  94 NW8       29.82F WCI  32
GAYLORD        FOG       35  32  88 NW6       29.76S VSB 1/4 WCI  30
GRAYLING       CLOUDY    36  35  96 W6        29.78S FOG     WCI  31
HARBOR SPRINGS FOG       35  35 100 CALM      29.78F VSB 1/2
HOUGHTON LAKE  CLOUDY    35  34  96 W7        29.78R FOG     WCI  29
MANISTEE       CLOUDY    38  35  89 W8        29.83S WCI  32
OSCODA         MIX PCPN  37  37  97 N5        29.75F WCI  34
PELLSTON       CLOUDY    35  33  92 W3        29.79S FOG
ROGERS CITY    LGT SNOW  34  33  96 E6        29.79F WCI  29
TRAVERSE CITY  DRIZZLE   38  36  92 W9        29.81R FOG     WCI  31
$$
MIZ007>008-015-241800-
EASTERN UPPER MICHIGAN

CITY           SKY/WX    TMP DP  RH WIND       PRES   REMARKS
MACKINAC ISLAN CLOUDY    33  33 100 E3        29.79S FOG
NEWBERRY       FOG       32  32  99 N3        29.80S VSB 3/4
S. S. MARIE    CLOUDY    35  33  92 CALM      29.79F FOG
MUNISING         N/A     35  35 100 NW12      29.82S WCI  27
$$
MIZ004>006-011>014-085-241800-
CENTRAL UPPER MICHIGAN

CITY           SKY/WX    TMP DP  RH WIND       PRES   REMARKS
MANISTIQUE     CLOUDY    34  34  98 N6        29.81S WCI  29
ESCANABA       LGT RAIN  36  35  96 NW5       29.83F WCI  32
SAWYER-GWINN   CLOUDY    34  34 100 NW7       29.82S WCI  28
$$
MIZ001>003-009>011-084-241800-
WESTERN UPPER MICHIGAN

CITY           SKY/WX    TMP DP  RH WIND       PRES   REMARKS
IRON MOUNTAIN  CLOUDY    36  32  85 NW7       29.81F WCI  30
HOUGHTON       CLOUDY    36  33  89 W8        29.82S WCI  30
COPPER HARBOR    N/A     36  33  89 N9        29.83F WCI  29
IRONWOOD       CLOUDY    33  29  85 W5        29.87R WCI  29
$$

ABBREVIATIONS USED IN REMARKS
   TC - TEMPERATURE IN CELSIUS
  WCI - WIND CHILL INDEX
   HX - HEAT INDEX
  VSB - VISIBILITY





USA.gov is the U.S. government's official web portal to all federal, state and local government web resources and services.